Augusta, GA

4:03 PM EST on January 18, 2017 (GMT -0500)
Daniel

Weather History for KDNL - January, 2013

Change the Weather History Date:

Thursday, January 10, 2013

  Actual Average Record
Temperature  
Mean Temperature 64 °F -  
Max Temperature 75 °F 55 °F 75 °F (2013)
Min Temperature 52 °F 37 °F 27 °F (2001)
Degree Days  
Heating Degree Days 1    
Month to date heating degree days 139  
Growing Degree Days 13 (Base 50)    
Moisture  
Dew Point 54 °F    
Average Humidity 75    
Maximum Humidity 93    
Minimum Humidity 44    
Precipitation  
Precipitation T in - - ()
Month to date precipitation 0.08  
Year to date precipitation 0.08  
Sea Level Pressure  
Sea Level Pressure 30.38 in    
Wind  
Wind Speed 6 mph (East)    
Max Wind Speed 15 mph    
Max Gust Speed 23 mph    
Visibility 10 miles    
Events Rain    
Averages and records for this station are not official NWS values.
T = Trace of Precipitation, MM = Missing Value Source: NWS Daily Summary

Daily Weather History Graph

Daily Weather History Graph

Search for Another Location

Airport or City:

Trip Planner

Search our weather history database for the weather conditions in past years. The results will help you decide how hot, cold, wet, or windy it might be!

Date:

Astronomy

Jan. 10, 2013 Rise Set
Actual Time 7:32 AM EST 5:39 PM EST
Civil Twilight 7:05 AM EST 6:06 PM EST
Nautical Twilight 6:35 AM EST 6:36 PM EST
Astronomical Twilight 6:05 AM EST 7:06 PM EST
Moon 6:11 AM EST (1/10) 4:44 PM EST (1/10)
Length of Visible Light 11h 00m
Length of Day
10h 06m
Waning Crescent, 2% of the Moon is Illuminated
Jan 10
Waning Crescent
Jan 11
New
Jan 18
First Quarter
Jan 26
Full
Feb 3
Last Quarter

Hourly Weather History & Observations

Time (EST) Temp. Dew Point Humidity Pressure Visibility Wind Dir Wind Speed Gust Speed Precip Events Conditions
12:53 AM 55.9 °F 52.0 °F 87% 30.40 in 10.0 mi North 4.6 mph - N/A   Clear
1:53 AM 55.9 °F 52.0 °F 87% 30.41 in 10.0 mi North 3.5 mph - N/A   Clear
2:53 AM 55.0 °F 52.0 °F 89% 30.41 in 10.0 mi ENE 4.6 mph - N/A   Clear
3:53 AM 54.0 °F 51.1 °F 90% 30.41 in 10.0 mi North 3.5 mph - N/A   Clear
4:53 AM 53.1 °F 50.0 °F 89% 30.40 in 10.0 mi Calm Calm - N/A   Clear
5:53 AM 55.0 °F 51.1 °F 86% 30.40 in 10.0 mi NE 6.9 mph - N/A   Clear
6:53 AM 53.1 °F 50.0 °F 89% 30.41 in 10.0 mi NNE 4.6 mph - N/A   Clear
7:53 AM 53.1 °F 50.0 °F 89% 30.42 in 10.0 mi North 4.6 mph - N/A   Clear
8:53 AM 59.0 °F 53.1 °F 81% 30.44 in 10.0 mi ENE 6.9 mph - N/A   Clear
9:53 AM 63.0 °F 54.0 °F 72% 30.44 in 10.0 mi ENE 9.2 mph - N/A   Partly Cloudy
10:53 AM 66.9 °F 55.0 °F 66% 30.43 in 10.0 mi ENE 6.9 mph - N/A   Scattered Clouds
11:53 AM 70.0 °F 54.0 °F 57% 30.40 in 10.0 mi East 8.1 mph - N/A   Clear
12:53 PM 72.0 °F 51.1 °F 48% 30.38 in 10.0 mi East 10.4 mph - N/A   Mostly Cloudy
1:53 PM 73.9 °F 51.1 °F 45% 30.36 in 10.0 mi East 8.1 mph 17.3 mph N/A   Overcast
2:53 PM 73.0 °F 50.0 °F 44% 30.34 in 10.0 mi East 10.4 mph - N/A   Mostly Cloudy
3:53 PM 73.0 °F 52.0 °F 48% 30.34 in 10.0 mi ESE 10.4 mph - N/A   Scattered Clouds
4:53 PM 71.1 °F 53.1 °F 53% 30.36 in 10.0 mi ESE 4.6 mph - N/A   Overcast
5:53 PM 70.0 °F 53.1 °F 55% 30.36 in 10.0 mi ESE 8.1 mph - 0.00 in Rain Light Rain
6:53 PM 64.9 °F 55.9 °F 73% 30.38 in 10.0 mi ESE 9.2 mph - 0.00 in   Overcast
7:32 PM 62.6 °F 57.2 °F 82% 30.37 in 10.0 mi Calm Calm - 0.00 in   Overcast
7:53 PM 63.0 °F 57.9 °F 84% 30.37 in 10.0 mi Calm Calm - 0.00 in Rain Light Rain
8:53 PM 63.0 °F 57.0 °F 81% 30.36 in 10.0 mi ESE 6.9 mph - 0.00 in   Overcast
9:35 PM 62.6 °F 57.2 °F 82% 30.37 in 10.0 mi ESE 5.8 mph - N/A   Overcast
9:53 PM 62.1 °F 57.9 °F 86% 30.36 in 10.0 mi ESE 6.9 mph - N/A   Overcast
10:53 PM 61.0 °F 57.9 °F 90% 30.33 in 10.0 mi ESE 6.9 mph - N/A   Overcast
11:41 PM 60.8 °F 57.2 °F 88% 30.31 in 10.0 mi ESE 11.5 mph - N/A   Overcast
11:53 PM 61.0 °F 57.9 °F 90% 30.30 in 10.0 mi ESE 9.2 mph - N/A   Overcast